Dewpoint
63 64 65 66 67 69 70 71 73 76 72 69 70 67 66 66 65 65 73 73 73 74 74 73 74 72 75 75 73 75 70 71 74 71 71 71 73 71 70 68 74 71 67
62 64 64 65 66 68 71 74 74 76 75 71 72 71 70 69 69 66 73 74 71 74 73 73 74 72 75 74 72 73 72 73 72 67 70 69 70 74 67 70 73 70 69
62 64 65 64 66 66 70 73 75 77 76 76 74 74 71 70 68 67 69 72 74 74 74 73 74 74 76 74 72 73 73 71 71 71 73 67 65 70 74 72 72 72 74
60 63 63 64 64 66 68 71 74 76 76 77 74 75 70 68 68 67 71 71 73 72 72 73 73 74 74 72 74 75 72 72 71 72 70 73 72 66 68 71 74 74 73
55 59 61 63 63 66 66 69 75 77 77 77 77 73 73 70 69 67 72 72 72 73 71 72 71 72 72 73 73 74 72 71 73 71 73 72 75 74 68 69 67 70 74
49 56 59 61 62 63 65 67 74 77 77 77 76 76 75 75 74 71 69 70 70 72 71 71 72 72 70 71 75 76 75 74 75 75 74 71 72 72 68 68 69 66 68
45 50 55 58 61 63 64 66 70 74 74 75 75 75 75 76 76 73 73 73 71 69 70 71 70 70 70 71 75 77 75 73 72 73 75 70 70 74 71 74 73 67 70
43 46 53 56 59 62 64 66 68 71 72 73 75 76 76 74 75 75 74 71 70 70 73 72 70 70 71 71 76 76 71 72 71 74 75 76 71 74 68 68 69 72 71
39 43 51 56 59 61 64 65 67 69 71 71 73 75 76 75 74 76 76 72 75 73 72 72 71 71 72 75 75 74 74 76 76 75 73 73 74 71 69 70 71 66 71
38 42 49 54 57 59 61 65 66 67 70 70 71 71 74 75 74 76 75 73 73 73 73 74 73 72 74 74 76 75 75 75 75 75 72 76 75 74 70 71 70 71 69
45 46 50 54 57 60 62 64 67 67 69 70 71 72 73 72 74 73 72 73 71 73 74 74 73 73 74 73 74 74 74 74 74 75 75 75 76 71 69 71 71 68 70
47 49 53 55 59 62 63 65 67 68 69 70 71 71 74 74 71 71 71 72 72 72 73 73 73 74 74 74 73 73 74 74 73 73 74 74 75 75 75 70 74 72 73
50 50 53 57 61 64 67 67 69 69 68 69 69 71 72 71 70 72 71 72 72 72 71 72 74 74 74 74 75 74 73 72 72 73 72 73 73 74 75 72 72 69 69
56 51 53 57 63 67 69 70 71 70 68 69 68 70 70 70 70 71 72 71 72 72 72 72 74 74 73 73 72 72 71 71 71 73 72 73 72 71 72 72 72 74 75
52 54 56 61 67 69 71 73 71 71 70 71 70 71 71 71 71 73 73 72 72 72 73 73 74 73 72 69 71 71 71 70 70 71 72 72 71 70 69 71 73 74 74
46 55 59 63 66 69 72 73 72 72 72 72 71 72 74 75 74 75 74 73 74 73 74 75 73 74 66 67 69 71 69 69 69 69 68 68 68 68 67 67 68 69 73
48 53 60 63 65 69 73 73 72 72 72 73 73 74 74 74 74 74 75 74 74 75 74 74 74 73 70 67 69 70 68 68 68 68 68 67 68 69 69 67 67 67 66
58 55 54 62 65 67 71 73 72 74 74 73 74 74 75 74 74 75 74 76 74 74 74 73 73 71 69 65 65 68 71 74 71 70 69 69 69 69 68 68 68 69 68
58 55 52 58 66 68 72 73 72 73 72 72 74 75 75 75 74 74 75 76 75 75 74 74 72 72 70 62 63 67 71 73 72 71 70 70 69 65 64 67 67 68 68
64 60 56 62 66 69 70 72 72 72 72 74 75 76 76 76 75 75 76 76 75 75 71 72 71 68 71 60 61 64 65 65 72 74 72 67 68 60 60 67 67 65 64
61 63 62 60 61 65 68 72 73 72 73 75 75 76 77 77 77 77 77 75 75 76 74 72 73 72 70 67 58 59 67 62 63 67 70 68 60 57 57 58 65 62 62
60 61 63 65 66 67 68 70 73 76 78 76 77 77 77 75 74 76 77 77 76 74 75 75 72 69 72 66 56 57 58 63 63 64 62 67 56 54 55 55 58 58 58
62 63 64 67 69 71 70 70 73 75 76 77 76 76 77 76 77 76 76 74 75 74 71 73 71 74 73 69 59 56 58 59 63 63 62 56 52 53 54 57 57 56 52
61 63 65 66 67 67 68 71 73 74 75 75 75 76 74 73 71 71 73 70 68 66 66 67 67 70 71 70 67 63 58 58 59 59 59 58 58 58 60 56 55 54 52
60 63 65 67 68 69 70 70 69 71 72 71 72 71 70 69 70 69 68 69 69 63 63 64 67 71 72 67 64 60 59 58 57 59 62 61 61 60 60 58 58 55 53
65 64 65 65 66 66 68 70 70 68 67 67 63 62 62 65 70 70 68 58 56 54 52 53 62 69 62 56 53 51 50 50 51 59 59 61 59 58 58 57 57 56 55
Lifted_Index
-5 -5 -5 -5 -6 -7 -7 -7 -7 -7 -6 -5 -4 -4 -3 -3 -2 -2 -3 -4 -4 -4 -4 -4 -4 -4 -4 -3 -3 -3 -2 -3 -3 -2 -2 -3 -3 -2 -2 -2 -3 -3 -2
-6 -6 -6 -6 -6 -7 -7 -8 -8 -7 -6 -6 -5 -4 -4 -3 -3 -3 -3 -4 -3 -4 -4 -4 -4 -3 -4 -3 -3 -3 -3 -3 -2 -2 -2 -2 -3 -3 -2 -3 -3 -3 -3
-6 -6 -6 -6 -6 -7 -7 -8 -8 -8 -7 -6 -6 -5 -5 -4 -3 -3 -3 -3 -3 -3 -3 -3 -3 -3 -3 -3 -3 -3 -3 -3 -2 -2 -2 -2 -2 -3 -3 -3 -3 -4 -4
-6 -6 -6 -6 -6 -7 -7 -7 -8 -8 -7 -7 -6 -5 -5 -4 -3 -3 -3 -3 -3 -3 -3 -3 -2 -3 -3 -3 -3 -3 -3 -3 -3 -2 -2 -3 -3 -3 -3 -3 -4 -4 -4
-5 -5 -6 -6 -6 -6 -7 -7 -8 -8 -7 -7 -6 -6 -5 -5 -4 -3 -3 -3 -3 -3 -2 -2 -2 -2 -2 -3 -3 -4 -3 -3 -3 -3 -3 -3 -3 -3 -3 -3 -3 -3 -4
-3 -4 -5 -6 -6 -6 -6 -7 -7 -8 -8 -7 -7 -6 -6 -6 -5 -4 -4 -3 -2 -2 -1 -1 -1 -1 -1 -2 -3 -4 -4 -3 -3 -4 -3 -3 -3 -3 -3 -3 -3 -3 -3
-2 -3 -4 -5 -5 -6 -6 -6 -7 -7 -7 -7 -7 -7 -6 -6 -6 -5 -4 -4 -3 -2 -1 -1 -1 -0 -1 -2 -3 -4 -4 -4 -4 -4 -4 -3 -3 -3 -3 -3 -3 -3 -3
-2 -2 -3 -4 -5 -5 -5 -6 -6 -6 -6 -6 -7 -7 -7 -6 -6 -5 -5 -4 -3 -2 -2 -1 -1 -1 -1 -2 -3 -4 -4 -4 -4 -4 -4 -4 -3 -3 -3 -3 -3 -3 -3
-1 -2 -3 -4 -5 -5 -5 -5 -5 -5 -6 -6 -6 -7 -6 -6 -6 -5 -5 -5 -4 -3 -3 -2 -2 -2 -2 -3 -3 -4 -4 -4 -4 -4 -4 -3 -4 -3 -3 -3 -3 -3 -3
-1 -2 -3 -4 -4 -5 -5 -5 -5 -5 -6 -6 -6 -6 -6 -6 -6 -5 -5 -5 -4 -4 -3 -3 -3 -3 -3 -3 -3 -4 -4 -4 -4 -4 -4 -4 -4 -4 -3 -3 -3 -3 -3
-2 -2 -3 -3 -4 -4 -5 -5 -5 -5 -6 -6 -6 -6 -6 -6 -5 -5 -5 -5 -5 -4 -4 -4 -4 -4 -3 -3 -3 -3 -3 -3 -4 -4 -4 -4 -4 -4 -3 -3 -3 -3 -3
-2 -3 -3 -3 -4 -4 -5 -5 -5 -6 -6 -6 -6 -6 -6 -6 -5 -5 -5 -5 -5 -5 -5 -4 -4 -4 -4 -4 -3 -3 -3 -3 -3 -3 -4 -4 -4 -4 -3 -3 -3 -3 -3
-3 -3 -3 -4 -4 -5 -6 -6 -6 -7 -7 -6 -6 -6 -6 -6 -5 -5 -5 -5 -5 -5 -5 -5 -4 -4 -4 -4 -4 -3 -3 -3 -2 -3 -3 -3 -3 -4 -4 -3 -3 -3 -3
-4 -3 -3 -4 -5 -6 -7 -7 -8 -8 -7 -7 -7 -7 -6 -6 -5 -5 -5 -5 -5 -5 -5 -5 -5 -5 -4 -4 -4 -4 -3 -2 -2 -2 -2 -3 -2 -2 -3 -3 -3 -3 -3
-3 -4 -4 -5 -6 -7 -8 -9 -9 -8 -8 -7 -7 -7 -7 -6 -6 -6 -6 -5 -5 -5 -5 -5 -5 -5 -4 -4 -4 -3 -3 -2 -2 -1 -1 -1 -1 -1 -1 -1 -2 -2 -3
-3 -4 -5 -6 -7 -8 -9 -10 -9 -8 -8 -8 -7 -7 -7 -7 -7 -6 -6 -6 -6 -6 -6 -6 -5 -5 -4 -4 -3 -3 -3 -2 -1 -1 0 0 1 0 0 -0 -1 -2 -2
-3 -4 -5 -6 -7 -8 -9 -9 -9 -9 -8 -8 -8 -8 -8 -8 -7 -7 -7 -7 -7 -7 -6 -6 -6 -5 -4 -4 -3 -3 -3 -2 -2 -1 -0 1 1 1 1 0 -0 -1 -1
-4 -4 -5 -6 -7 -8 -9 -9 -9 -9 -8 -8 -8 -8 -8 -8 -8 -8 -8 -8 -7 -7 -7 -7 -6 -5 -4 -4 -3 -3 -3 -3 -3 -2 -1 -1 0 0 0 0 -0 -1 -1
-5 -4 -4 -6 -7 -8 -8 -9 -9 -8 -8 -8 -8 -9 -9 -9 -9 -9 -8 -8 -8 -7 -7 -7 -6 -5 -4 -3 -3 -3 -3 -4 -4 -4 -3 -2 -1 -0 -0 -0 -0 -0 -0
-6 -5 -5 -6 -7 -8 -8 -8 -8 -8 -8 -8 -8 -9 -9 -10 -10 -9 -9 -8 -8 -7 -7 -7 -6 -5 -5 -3 -2 -2 -2 -2 -3 -4 -3 -3 -2 -1 -0 -0 -0 0 1
-5 -5 -5 -6 -6 -7 -8 -8 -8 -8 -8 -8 -8 -9 -9 -9 -10 -10 -9 -9 -8 -7 -7 -6 -6 -5 -5 -3 -2 -0 -0 -0 -1 -2 -3 -3 -2 -1 0 1 1 2 3
-5 -5 -5 -6 -6 -7 -7 -8 -8 -8 -9 -9 -9 -9 -9 -9 -9 -9 -9 -9 -8 -7 -7 -6 -6 -5 -5 -3 -2 0 1 1 0 -1 -2 -2 -2 -1 0 1 2 4 5
-4 -4 -5 -6 -6 -6 -6 -7 -7 -8 -8 -8 -8 -8 -9 -9 -8 -7 -7 -7 -7 -7 -6 -5 -5 -5 -4 -3 -2 -0 2 2 2 1 -0 -1 -1 -1 0 1 3 4 6
-4 -4 -4 -5 -5 -5 -5 -6 -6 -7 -7 -7 -7 -7 -7 -7 -6 -5 -4 -5 -5 -5 -4 -3 -4 -4 -4 -4 -3 -1 1 2 3 2 1 0 -0 0 1 2 3 5 6
-3 -3 -4 -4 -4 -4 -4 -5 -5 -5 -5 -5 -5 -5 -5 -5 -5 -3 -3 -3 -4 -3 -2 -2 -2 -4 -4 -4 -2 -1 -0 1 2 2 1 1 1 2 2 3 4 5 6
-3 -3 -4 -4 -4 -4 -4 -4 -4 -3 -3 -3 -3 -3 -3 -4 -4 -4 -3 -3 -3 -2 -1 -1 -2 -3 -4 -3 -2 -1 -0 0 1 1 1 1 2 2 3 3 4 5 6